Regional Weather Roundup
Issued by NWS

Home | Current Version | Previous Version | Graphics & Text | Print | Product List | Glossary On
Versions: 1 2 3 4 5 6 7 8 9 10 11 12 13 14 15 16 17 18 19 20 21 22 23 24 25 26 27
000
ASUS45 KPSR 250410
RWRAZ

ARIZONA HOURLY REGIONAL WEATHER ROUNDUP
NATIONAL WEATHER SERVICE PHOENIX AZ
900 PM MST FRI MAR 24 2017

NOTE: FAIR INDICATES FEW OR NO CLOUDS BELOW 12,000 FEET WITH NO
SIGNIFICANT WEATHER AND/OR OBSTRUCTIONS TO VISIBILITY.

AZZ001>003-036-250500-
NORTHWEST ARIZONA

CITY           SKY/WX    TMP DP  RH WIND       PRES   REMARKS
BULLHEAD CITY  MOCLDY    72  28  20 CALM      30.05R
KINGMAN        CLEAR     53  24  32 S8        30.15R
$$

AZZ004>008-015-016-018-250500-
NORTH CENTRAL ARIZONA

CITY           SKY/WX    TMP DP  RH WIND       PRES   REMARKS
GRAND CANYON   CLEAR     36  32  85 CALM      30.24R
WILLIAMS       CLEAR     39  30  70 SE7       30.26R WCI  34
PRESCOTT       CLEAR     51  33  50 S7        30.22R
FLAGSTAFF      CLEAR     35  31  85 CALM      30.27R
PAYSON         CLEAR     52  34  50 NW5       30.26R
PAGE           CLEAR     56  34  43 S3        30.13S
$$

AZZ009>014-017-250500-
NORTHEAST ARIZONA

CITY           SKY/WX    TMP DP  RH WIND       PRES   REMARKS
WINSLOW        CLEAR     42  13  30 SW7       30.20R
SAINT JOHNS    CLEAR     46  20  35 SW5       30.21R
WINDOW ROCK    CLEAR     43  23  45 VRB3      30.23R
SHOW LOW       CLEAR     39  25  56 S7        30.26R WCI  34
$$

AZZ023-250500-
GREATER PHOENIX AREA

CITY           SKY/WX    TMP DP  RH WIND       PRES   REMARKS
PHOENIX        CLEAR     70  36  28 CALM      30.08S
BUCKEYE        CLEAR     63  37  39 CALM      30.09S
LUKE AFB       CLEAR     65  38  36 W3        30.08R
DEER VALLEY    CLEAR     65  37  35 CALM      30.10R
SCOTTSDALE     CLEAR     68  36  30 CALM      30.12R
MESA-GATEWAY   CLEAR     66  34  30 CALM      30.11S
CHANDLER       CLEAR     68  32  26 VRB5      30.10S
$$

AZZ027-028-250500-
SOUTHWEST MARICOPA COUNTY AND PINAL COUNTY

CITY           SKY/WX    TMP DP  RH WIND       PRES   REMARKS
CASA GRANDE    NOT AVBL
GILA BEND      FAIR      67  23  19 SW3       30.08R
$$

AZZ503-504-507>509-250500-
SOUTHEAST ARIZONA

CITY           SKY/WX    TMP DP  RH WIND       PRES   REMARKS
TUCSON         CLEAR     65  24  21 NW5       30.17R
DAVIS-MONTHAN  CLEAR     61  25  25 NW3       30.15S
NOGALES        CLEAR     51  17  26 NE6       30.18S
SIERRA VISTA   CLEAR     54  18  23 W13       30.22S
DOUGLAS        CLEAR     50  18  28 N12       30.18R
SAFFORD        LGT RAIN  61  29  29 NW10      30.13R
$$

AZZ020-021-025-026-031-250500-
SOUTHWEST ARIZONA

CITY           SKY/WX    TMP DP  RH WIND       PRES   REMARKS
YUMA           CLEAR     71  35  26 SW7       30.07R
$$

CAZ031-033-041-043-047-048-061-250500-
SOUTHERN CALIFORNIA

CITY           SKY/WX    TMP DP  RH WIND       PRES   REMARKS
DOWNTOWN L.A.  PTCLDY    60  49  66 CALM      30.17R
L.A. AIRPORT   PTCLDY    59  49  69 W18       30.17R
SAN DIEGO      PTCLDY    61  51  70 NW6       30.20R
BURBANK        CLEAR     60  47  61 W5        30.17R
ONTARIO        MOCLDY    58  47  66 W7        30.17R
RIVERSIDE      CLEAR     57  46  66 W6        30.17R
PALM SPRINGS   PTCLDY    73  35  25 NW6       30.09R
EL CENTRO NAS  PTCLDY    67  39  35 SE9       30.06R
IMPERIAL       PTCLDY    72  38  29 S5        30.05R
BLYTHE         CLEAR     73  28  18 SW10      30.06R
NEEDLES        MOCLDY    73  28  18 SW8       30.06R
$$

NVZ020-UTZ003-250500-
SOUTHERN NEVADA-UTAH

CITY           SKY/WX    TMP DP  RH WIND       PRES   REMARKS
LAS VEGAS      MOCLDY    71  23  16 SW7       30.01R
SALT LAKE CITY MOCLDY    55  34  45 S14       30.02R
$$

NMZ009-TXZ055-250500-
NEW MEXICO-WEST TEXAS

CITY           SKY/WX    TMP DP  RH WIND       PRES   REMARKS
ALBUQUERQUE    CLEAR     57  16  20 N9        30.16R
EL PASO        CLEAR     67  18  15 NW14      30.11R
$$


........................KEY........................
SKY/WX - SKY CONDITION/WEATHER
TMP    - TEMPERATURE IN FAHRENHEIT
DP     - DEW POINT IN FAHRENHEIT
RH     - RELATIVE HUMIDITY IN PERCENT
WIND   - DIRECTION AND SPEED IN MILES PER HOUR (MPH)
VRB    - VARIABLE WIND DIRECTION
PRES   - MEAN SEA LEVEL PRESSURE IN INCHES OF MERCURY
         F - FALLING PRESSURE   R - RISING PRESSURE
         S - STEADY PRESSURE
VSB    - VISIBILITY IN MILES
HX     - HEAT INDEX IN FAHRENHEIT
WCI    - WIND CHILL INDEX IN FAHRENHEIT
TC     - TEMPERATURE IN CELSIUS WHICH IS ALSO KNOWN AS
         TEMPERATURE IN CENTIGRADE
AFB    - AIR FORCE BASE
         LUKE AFB IS LUKE AIR FORCE BASE
         DAVIS-MONTHAN IS DAVIS-MONTHAN AIR FORCE BASE
NAS    - NAVAL AIR STATION
         EL CENTRO NAS IS EL CENTRO NAVAL AIR STATION
N/A    - NOT AVAILABLE





USA.gov is the U.S. government's official web portal to all federal, state and local government web resources and services.